TimeMDT,TemperatureF,Dew PointF,Humidity,Sea Level PressureIn,VisibilityMPH,Wind Direction,Wind SpeedMPH,Gust SpeedMPH,PrecipitationIn,Events,Conditions,WindDirDegrees,DateUTC
12:22 AM,46.4,42.8,87,30.02,2.5,ENE,8.1,-,0.01,Rain,Light Rain,70,2013-05-22 06:22:00
12:32 AM,46.4,42.8,87,30.01,4.0,East,3.5,-,0.01,Rain,Light Rain,100,2013-05-22 06:32:00
12:42 AM,46.4,42.8,87,30.01,10.0,East,5.8,-,0.01,,Overcast,100,2013-05-22 06:42:00
12:51 AM,46.9,42.1,83,30.03,10.0,East,8.1,-,0.01,Rain,Light Rain,100,2013-05-22 06:51:00
1:51 AM,46.9,41.0,80,30.03,10.0,East,10.4,-,0.00,,Overcast,100,2013-05-22 07:51:00
2:51 AM,46.0,41.0,83,30.02,10.0,East,13.8,-,N/A,,Overcast,90,2013-05-22 08:51:00
3:51 AM,45.0,39.9,82,30.01,10.0,East,13.8,-,N/A,,Overcast,80,2013-05-22 09:51:00
4:51 AM,44.1,39.9,85,30.03,10.0,East,5.8,-,N/A,,Mostly Cloudy,90,2013-05-22 10:51:00
5:51 AM,45.0,39.9,82,30.05,10.0,East,4.6,-,N/A,,Overcast,80,2013-05-22 11:51:00
6:51 AM,46.9,39.9,77,30.06,10.0,ENE,6.9,-,N/A,,Mostly Cloudy,60,2013-05-22 12:51:00
7:51 AM,48.9,41.0,74,30.07,10.0,ENE,9.2,-,N/A,,Mostly Cloudy,70,2013-05-22 13:51:00
8:51 AM,52.0,39.9,63,30.07,10.0,ESE,11.5,18.4,N/A,,Mostly Cloudy,110,2013-05-22 14:51:00
9:51 AM,53.1,37.0,55,30.06,10.0,East,19.6,-,N/A,,Mostly Cloudy,90,2013-05-22 15:51:00
10:51 AM,55.9,37.0,49,30.07,10.0,East,18.4,-,N/A,,Clear,90,2013-05-22 16:51:00
11:51 AM,59.0,39.0,48,30.07,10.0,East,17.3,26.5,N/A,,Partly Cloudy,100,2013-05-22 17:51:00
12:51 PM,60.1,39.0,46,30.06,10.0,East,12.7,19.6,N/A,,Scattered Clouds,100,2013-05-22 18:51:00
1:51 PM,61.0,37.9,42,30.06,10.0,East,16.1,26.5,N/A,,Partly Cloudy,100,2013-05-22 19:51:00
2:51 PM,64.0,39.9,41,30.05,10.0,East,18.4,25.3,N/A,,Scattered Clouds,100,2013-05-22 20:51:00
3:51 PM,64.0,35.1,34,30.04,10.0,East,25.3,31.1,N/A,,Clear,90,2013-05-22 21:51:00
4:51 PM,64.0,30.9,29,30.04,10.0,East,21.9,28.8,N/A,,Clear,100,2013-05-22 22:51:00
5:51 PM,64.0,30.9,29,30.04,10.0,East,19.6,31.1,N/A,,Clear,100,2013-05-22 23:51:00
6:51 PM,62.1,27.0,26,30.05,10.0,ESE,20.7,28.8,N/A,,Clear,110,2013-05-23 00:51:00
7:51 PM,57.9,30.0,35,30.07,10.0,East,15.0,-,N/A,,Clear,100,2013-05-23 01:51:00
8:51 PM,51.1,34.0,52,30.10,10.0,ESE,11.5,-,N/A,,Clear,110,2013-05-23 02:51:00
9:51 PM,48.9,34.0,56,30.12,10.0,ESE,11.5,-,N/A,,Clear,110,2013-05-23 03:51:00
10:51 PM,46.9,34.0,61,30.14,10.0,ESE,11.5,-,N/A,,Clear,120,2013-05-23 04:51:00
11:51 PM,46.9,34.0,61,30.14,10.0,ESE,13.8,-,N/A,,Clear,120,2013-05-23 05:51:00